Regional Weather Roundup
Issued by NWS

Home | Current Version | Previous Version | Text Only | Print | Product List | Glossary Off
Versions: 1 2 3 4 5 6 7 8 9 10 11 12 13 14 15 16 17 18 19 20 21 22 23 24 25 26 27 28 29 30 31 32 33 34 35 36 37 38 39 40 41 42 43 44 45 46 47 48 49 50

000
ASUS43 KMPX 202101
RWRMN
WEATHER ROUNDUP FOR MINNESOTA
NATIONAL WEATHER SERVICE TWIN CITIES/CHANHASSEN MN
400 PM CDT MON APR 20 2015


NOTE: "FAIR" INDICATES FEW OR NO CLOUDS BELOW 12,000 FEET WITH NO
SIGNIFICANT WEATHER AND/OR OBSTRUCTIONS TO VISIBILITY. N/A MEANS
CURRENT SKY AND/OR WEATHER CONDITIONS ARE NOT AVAILABLE.

MNZ060>063-068>070-202200-
   Twin Cities Metro

CITY           SKY/WX    TMP DP  RH WIND       PRES   REMARKS
TWIN CITIES    CLOUDY    42  26  53 W25G37    29.51S
ST PAUL        CLOUDY    43  26  51 W20G29    29.51S
CRYSTAL        CLOUDY    42  26  53 W17G35    29.51R
BLAINE         CLOUDY    43  28  56 W25G32    29.50
LAKEVILLE      CLOUDY    39  27  60 W26G33    29.51S
EDEN PRAIRIE   CLOUDY    42  25  50 NW25G33   29.52R
SOUTH ST PAUL  CLOUDY    44  26  49 W17G25    29.50S
LAKE ELMO      CLOUDY    43  28  56 W21       29.50S
$$
MNZ001>005-007-008-013>017-022>024-027-028-202200-
   Northwest Minnesota

CITY           SKY/WX    TMP DP  RH WIND       PRES   REMARKS
BEMIDJI        FLURRIES  33  29  85 W18G25    29.46S WCI  22
HALLOCK        LGT RAIN  36  32  87 NW29      29.56S
ROSEAU         CLOUDY    36  30  80 NW22      29.47R HAZE
WARROAD        LGT SNOW  36  32  87 NW23G29   29.45R
THIEF RVR FALL CLOUDY    34  30  86 NW24G33   29.53S WCI  21
CROOKSTON      LGT SNOW  34  34 100 NW30G38   29.58R WCI  20
FOSSTON        LGT SNOW  34  28  80 NW20G29   29.52S WCI  22
DETROIT LAKES  RAIN      34  32  93 NW22G30   29.55S WCI  22
MOORHEAD       CLOUDY    37  32  81 NW26G36   29.60S
PARK RAPIDS    LGT RAIN  42  27  55 NW24G31   29.48S
MAHNOMEN       FLURRIES  34  31  87 NW24G32   29.53S WCI  21
$$
MNZ006-009>011-018-025>026-202200-
   North Central Minnesota

CITY           SKY/WX    TMP DP  RH WIND       PRES   REMARKS
BAUDETTE       CLOUDY    37  32  82 NW20G26   29.39F
FLAG ISLAND    CLOUDY    36  30  80 NW30      29.39S
INTL FALLS     LGT SNOW  33  29  85 W10G20    29.35F FOG     WCI  25
WASKISH        CLOUDY    36  30  80 W16G22    29.42F
BIG FORK       CLOUDY    34  27  75 W10G17    29.40S WCI  26
LONGVILLE      CLOUDY    34  25  69 W15G24    29.45S WCI  24
GRAND RAPIDS   CLOUDY    34  23  64 W15G26    29.41S WCI  24
CRANE LAKE     CLOUDY    30  27  86 W8        29.36F WCI  23
ORR            CLOUDY    32  25  74 W8G18     29.33F WCI  25
COOK           CLOUDY    32  27  80 W16G25    29.36S WCI  21
WALKER         FLURRIES  33  27  77 W13G22    29.45S WCI  24
$$
MNZ012-019>021-037-202200-
   Northeast Minnesota

CITY           SKY/WX    TMP DP  RH WIND       PRES   REMARKS
DULUTH         CLOUDY    35  26  69 W18G30    29.36S WCI  24
ELY            CLOUDY    32  27  80 W14G23    29.31F WCI  22
HIBBING        CLOUDY    33  25  72 W14G25    29.38S WCI  23
EVELETH        CLOUDY    32  28  86 W14G25    29.37S WCI  22
DULUTH HARBOR  CLOUDY    39  30  70 W21G30    29.39F
TWO HARBORS    CLOUDY    39  30  70 W15G25    29.32F
SILVER BAY     CLOUDY    37  28  70 W12G29    29.30S
GRAND MARAIS     N/A     41  31  67 W8        29.25R
G MARAIS ARPRT CLOUDY    34  28  80 W8G16     29.21R WCI  27
$$
MNZ029>031-032-039>041-046>048-054>057-064-202200-
   West Central Minnesota

CITY           SKY/WX    TMP DP  RH WIND       PRES   REMARKS
FERGUS FALLS   PTSUNNY   36  34  93 NW30      29.60S FOG
WHEATON        MOSUNNY   39  30  70 NW23G29   29.64S
MORRIS         MOSUNNY   41  36  81 NW31G40   29.59S
ALEXANDRIA     LGT SNOW  35  30  82 NW25G38   29.56R WCI  23
ELBOW LAKE     LGT RAIN  35  33  94 NW22G35   29.59R WCI  23
WADENA         PTSUNNY   36  27  69 NW25G32   29.51S
GLENWOOD       MOSUNNY   37  34  87 W25G35    29.56S
APPLETON       MOSUNNY   43  32  65 NW21      29.62S
BENSON         PTSUNNY   43  30  61 NW35      29.59F
ORTONVILLE     CLOUDY    43  28  56 NW22G32   29.63S
MADISON        CLOUDY    43  28  56 NW23      29.64S
WILLMAR        FAIR      39  34  81 NW25G32   29.60S
$$
MNZ033>034-036-042>043-049>051-058-059-202200-
   Central Minnesota

CITY           SKY/WX    TMP DP  RH WIND       PRES   REMARKS
ST CLOUD       CLOUDY    40  25  55 W16G31    29.51F
SAUK CENTRE    CLOUDY    40  28  62 W21G30    29.53F
PAYNESVILLE    PTSUNNY   38  29  71 W21G32    29.55F
AITKIN         CLOUDY    39  27  60 W10G20    29.43S
PINE RIVER     FLURRIES  36  27  69 W14G22    29.50S
BRAINERD       CLOUDY    38  25  59 W20G30    29.47F
STAPLES        CLOUDY    36  25  64 NW23G29   29.50R
LONG PRAIRIE   FLURRIES  37  28  70 W21       29.52F
LITTLE FALLS   PTSUNNY   37  27  65 W20G28    29.50F
LITCHFIELD     CLOUDY    41  28  60 NW23G30   29.56F
BUFFALO        CLOUDY    40  25  56 W18G26    29.55S
MAPLE LAKE     CLOUDY    40  28  60 NW20G26   29.54F
$$
MNZ037-044-045-052-053-202200-
   East Central Minnesota

CITY           SKY/WX    TMP DP  RH WIND       PRES   REMARKS
PRINCETON      CLOUDY    41  25  52 W17G29    29.50F
MORA           CLOUDY    36  27  69 W14G24    29.48S
CAMBRIDGE      CLOUDY    41  27  56 W18G29    29.48R
RUSH CITY      CLOUDY    38  28  64 W9G28     29.47R
MOOSE LAKE     CLOUDY    37  27  65 CALM      29.40F
HINCKLEY       CLOUDY    37  28  70 W13G26    29.45S
CLOQUET        CLOUDY    37  27  65 W15G25    29.38F
MCGREGOR       CLOUDY    37  28  70 W9G18     29.43S
$$
MNZ071>073-080-081-089-090-097-098-202200-
   Southwest Minnesota

CITY           SKY/WX    TMP DP  RH WIND       PRES   REMARKS
MONTEVIDEO     CLOUDY    43  30  61 N15G28    29.63S
GRANITE FALLS  CLOUDY    40  32  73 W22       29.64F
CANBY          CLOUDY    44  28  53 NW29G38   29.66S
MARSHALL       CLOUDY    43  25  49 NW29G35   29.63F
REDWOOD FALLS  CLOUDY    40  33  76 NW18G29   29.62S
OLIVIA         CLOUDY    37  28  70 NW21G31   29.60S
PIPESTONE      PTSUNNY   45  25  45 N28G36    29.65F
WINDOM         CLOUDY    43  30  61 NW21G31   29.63F
WORTHINGTON    CLOUDY    48  27  43 NW26G38   29.64S
JACKSON        CLOUDY    43  32  65 NW20G31   29.64S
TRACY          CLOUDY    41  31  67 NW21G26   29.65S
SLAYTON        CLOUDY    43  27  53 NW30G38   29.65S
$$
MNZ065>067-074>077-082>085-091>093-202200-
   South Central Minnesota

CITY           SKY/WX    TMP DP  RH WIND       PRES   REMARKS
MANKATO        CLOUDY    43  25  49 NW25G35   29.58S
NEW ULM        PTSUNNY   41  28  60 NW21G26   29.60S
ST JAMES       CLOUDY    43  32  65 W21G29    29.63S
FAIRMONT       CLOUDY    43  28  56 NW24G30   29.62S
GLENCOE        CLOUDY    43  30  61 W18G33    29.56R
FARIBAULT      CLOUDY    43  28  56 W18G28    29.54F
OWATONNA       CLOUDY    43  27  52 W26G33    29.56R
WASECA         CLOUDY    43  30  61 NW32      29.58S
ALBERT LEA     CLOUDY    43  30  61 W16G25    29.58R
$$
MNZ078>079-086>088-094>096-202200-
   Southeast Minnesota

CITY           SKY/WX    TMP DP  RH WIND       PRES   REMARKS
ROCHESTER      CLOUDY    40  30  67 NW17G30   29.53R
RED WING       CLOUDY    43  27  52 W16G26    29.49F
STANTON        CLOUDY    43  28  56 W25G31    29.52S
DODGE CENTER   CLOUDY    41  30  65 NW21      29.53S
WINONA         CLOUDY    43  30  61 NW14      29.51S
AUSTIN         CLOUDY    43  28  56 W24G32    29.56R
PRESTON        CLOUDY    40  30  66 NW21G28   29.53S
$$
ABBREVIATIONS USED IN REMARKS
   TC - TEMPERATURES IN CELSIUS
  WCI - WIND CHILL INDEX
   HX - HEAT INDEX
  VSB - VISIBILITY
$$



USA.gov is the U.S. government's official web portal to all federal, state and local government web resources and services.